Preview of NWS' New Version of Forecast
This preview is not operational and should not be used for support decisions.

Regional Weather Roundup (RWR)

Issued by National Weather Service (NWS)

                            
000
ASUS45 KCYS 221810
RWRWY 

WYOMING REGIONAL WEATHER ROUNDUP
NATIONAL WEATHER SERVICE CHEYENNE WY
1200 PM MDT THU AUG 22 2019

NOTE:  "FAIR" INDICATES FEW OR NO CLOUDS BELOW 12,000 FEET
WITH NO SIGNIFICANT WEATHER AND/OR OBSTRUCTIONS TO VISIBILITY.

WYZ001-221900-
YELLOWSTONE NATIONAL PARK
  
CITY           SKY/WX    TMP DP  RH WIND       PRES   REMARKS
LK YELLOWSTONE   N/A     66  37  34 CALM      30.09F                  
6HR MIN TEMP:  40; 6HR MAX TEMP:  66;                                

W YELLOWSTONE  NOT AVBL                                               

$$
WYZ002>013-054>058-071-098>099-221900-
NORTHERN WYOMING
  
CITY           SKY/WX    TMP DP  RH WIND       PRES   REMARKS
JACKSON        FAIR      67  41  38 S6        30.02F                  
CODY           FAIR      81  50  33 CALM      29.87F                  
GREYBULL       FAIR      85  45  24 S8        29.78F                  
6HR MIN TEMP:  59; 6HR MAX TEMP:  85;                                

WORLAND        FAIR      84  47  27 E8        29.80F                  
6HR MIN TEMP:  56; 6HR MAX TEMP:  84;                                

SHERIDAN       FAIR      86  51  29 VRB3      29.79F                  
6HR MIN TEMP:  52; 6HR MAX TEMP:  86;                                

BUFFALO        FAIR      85  48  27 S13       29.87F                  
6HR MIN TEMP:  59; 6HR MAX TEMP:  85;                                

GILLETTE       FAIR      81  57  43 S20G36    29.86F                  
6HR MIN TEMP:  60; 6HR MAX TEMP:  82;                                

HULETT         FAIR      82  55  39 S14       29.91                   
NEWCASTLE      FAIR      79  52  38 S22G30    29.93                   

$$
WYZ014>020-022>026-101>103-221900-
CENTRAL WYOMING
  
CITY           SKY/WX    TMP DP  RH WIND       PRES   REMARKS
BIG PINEY      FAIR      71  39  31 S6        30.06F                  
6HR MIN TEMP:  41; 6HR MAX TEMP:  71;                                

PINEDALE       FAIR      73  32  21 SE6       30.07                   
DUBOIS         FAIR      75  30  19 SE3       30.02                   
LANDER         FAIR      78  43  28 VRB3      29.93F                  
6HR MIN TEMP:  50; 6HR MAX TEMP:  79;                                

RIVERTON       FAIR      77  44  30 VRB7      29.92F                  
6HR MIN TEMP:  53; 6HR MAX TEMP:  77;                                

CASPER         FAIR      85  42  22 SW14      29.91F                  
6HR MIN TEMP:  52; 6HR MAX TEMP:  86;                                

DOUGLAS        FAIR      83  54  36 SE13      29.92F                  
6HR MIN TEMP:  59; 6HR MAX TEMP:  83;                                


$$
WYZ021-027>030-104>119-221900-
SOUTHERN WYOMING
  
CITY           SKY/WX    TMP DP  RH WIND       PRES   REMARKS
EVANSTON       FAIR      79  23  12 SW15G23   30.05F                  
6HR MIN TEMP:  52; 6HR MAX TEMP:  79;                                

KEMMERER       FAIR      73  23  15 S3        30.07                   
ROCK SPRINGS   FAIR      81  33  17 W15G21    30.04F                  
6HR MIN TEMP:  53; 6HR MAX TEMP:  81;                                

DIXON          FAIR      80  28  14 S21G32    30.07F                  
RAWLINS        FAIR      85  31  14 SW16G25   30.04F                  
6HR MIN TEMP:  50; 6HR MAX TEMP:  85;                                

SARATOGA       FAIR      82  28  14 SW16G23   30.07F                  
LARAMIE        FAIR      85  25  11 W17G26    30.06F                  
6HR MIN TEMP:  54; 6HR MAX TEMP:  86;                                

CHEYENNE       FAIR      75  53  46 S17G23    30.04F                  
6HR MIN TEMP:  59; 6HR MAX TEMP:  75;                                

TORRINGTON     FAIR      81  63  54 SE14      29.92F                  
6HR MIN TEMP:  56; 6HR MAX TEMP:  81;                                

PINE BLUFFS    FAIR      79  54  41 S17G24    30.01F                  

$$